Wind_Speed
52 48 50 49 45 44 43 43 41 40 40 40 40 40 39 38 37 35 36 37 38 39 41 40 41 40 39
56 54 53 53 53 50 46 44 42 41 42 41 41 40 39 37 37 36 37 38 38 40 41 41 41 41 43
50 49 50 50 51 48 46 44 42 43 43 41 40 38 39 38 38 38 39 39 39 40 42 42 42 42 42
53 53 55 55 51 46 43 44 44 44 43 41 39 37 38 39 39 39 40 42 41 42 43 44 44 45 44
58 56 53 49 48 47 45 44 43 43 42 42 40 41 40 40 40 41 41 42 43 43 45 45 46 46 47
52 51 49 48 47 45 45 44 43 43 43 43 43 42 42 42 43 43 43 44 44 46 47 47 47 48 48
54 52 51 51 48 47 45 45 44 44 45 43 42 43 45 45 45 45 46 46 46 47 47 48 49 49 49
59 53 45 52 51 49 49 47 46 47 45 43 43 45 46 47 48 47 48 48 48 48 49 50 51 51 50
55 55 61 50 50 51 48 49 49 48 48 46 45 46 46 48 48 48 49 50 50 50 51 52 52 51 51
55 56 57 47 44 51 50 51 51 49 49 49 48 49 49 50 49 50 50 51 51 53 53 53 52 52 51
55 50 51 50 52 57 54 54 51 52 52 52 52 52 52 51 52 52 52 52 53 54 55 54 53 53 49
70 69 65 55 56 57 56 55 55 55 55 54 54 54 53 54 54 54 54 55 55 56 55 53 54 52 50
68 67 63 60 60 59 58 58 57 57 57 57 57 56 57 56 55 55 57 57 57 56 55 56 53 53 50
68 68 66 64 63 63 61 60 59 58 58 59 59 59 58 57 57 57 58 60 57 57 57 53 54 53 50
70 68 63 61 62 62 60 59 59 59 60 59 60 59 58 58 59 59 60 61 59 57 54 54 54 51 49
59 61 59 61 62 62 62 62 60 60 60 60 59 58 59 60 59 62 62 59 56 55 54 52 49 49 51
59 59 58 58 60 63 65 63 62 61 59 57 59 60 58 62 63 59 55 52 49 48 49 50 50 51 52
Wind_Direction
251 255 256 262 264 266 271 272 270 270 272 274 276 278 280 282 284 286 290 294 295 298 300 302 302 301 303
254 257 258 261 263 266 269 268 266 267 269 273 276 278 278 281 283 286 289 292 294 297 300 300 302 304 305
255 256 259 263 265 266 264 264 265 267 268 272 275 276 277 279 281 284 287 289 293 296 299 300 301 301 301
250 252 255 263 262 261 261 260 263 265 269 272 275 274 274 276 279 283 284 288 292 294 295 297 298 299 300
248 251 253 256 258 258 258 260 261 266 270 273 273 275 277 277 278 280 283 287 290 292 294 295 297 297 298
248 248 250 252 254 254 254 258 262 266 269 272 276 278 276 277 279 281 283 286 289 291 292 294 295 295 296
247 252 248 250 250 250 253 256 258 261 264 270 273 274 275 277 278 280 282 283 285 287 291 293 294 294 294
243 240 248 248 251 253 254 255 259 262 265 265 266 269 272 275 276 278 281 283 285 288 290 292 292 292 293
247 251 251 248 251 253 256 258 260 263 267 266 270 270 271 273 275 278 279 282 285 288 289 290 291 289 293
246 247 244 243 252 255 256 261 263 266 269 270 271 273 274 276 278 277 278 281 284 286 287 289 288 289 292
233 234 243 260 248 250 255 260 263 265 267 271 273 274 275 277 276 278 280 282 284 287 289 288 288 290 288
242 248 257 257 253 254 257 260 263 266 268 270 272 275 276 276 277 279 281 282 284 285 286 286 288 287 285
245 249 252 254 255 255 258 261 263 266 269 271 273 275 274 275 276 277 279 282 284 284 284 287 284 283 282
246 250 252 253 255 256 257 259 263 266 269 271 273 274 274 275 276 278 279 281 282 283 285 283 282 281 280
247 248 248 251 254 254 257 261 264 266 268 271 272 273 274 274 277 278 279 282 282 282 281 282 281 278 279
242 241 246 250 253 257 261 263 265 267 270 271 272 271 271 275 276 279 281 281 280 280 279 278 278 279 281
240 248 250 248 253 260 262 264 266 268 268 266 268 271 272 276 278 278 276 275 276 276 277 277 279 281 283
Height
5755 5758 5761 5764 5764 5765 5766 5768 5769 5770 5768 5767 5767 5768 5767 5766 5765 5763 5762 5760 5757 5754 5752 5749 5746 5743 5741
5743 5747 5749 5751 5754 5755 5756 5758 5760 5760 5759 5758 5758 5759 5757 5757 5756 5754 5753 5751 5749 5746 5744 5741 5737 5734 5730
5731 5734 5738 5740 5743 5744 5746 5748 5749 5748 5748 5748 5749 5750 5748 5747 5747 5745 5744 5741 5740 5737 5735 5732 5728 5726 5722
5719 5724 5727 5729 5732 5734 5736 5736 5736 5737 5739 5739 5738 5739 5738 5738 5736 5735 5734 5732 5730 5728 5725 5722 5719 5716 5713
5707 5711 5715 5718 5721 5722 5724 5724 5725 5727 5728 5728 5729 5728 5728 5727 5726 5725 5724 5722 5720 5717 5715 5712 5709 5705 5702
5696 5699 5703 5706 5708 5711 5712 5713 5716 5716 5716 5717 5717 5718 5716 5715 5714 5714 5713 5711 5708 5706 5704 5701 5698 5695 5691
5684 5687 5690 5694 5697 5699 5701 5704 5705 5704 5705 5706 5706 5706 5705 5704 5704 5703 5702 5701 5698 5695 5693 5690 5687 5683 5679
5672 5675 5678 5679 5684 5687 5689 5691 5693 5694 5695 5696 5696 5696 5694 5693 5693 5691 5691 5689 5686 5684 5681 5678 5674 5671 5667
5658 5662 5665 5667 5670 5673 5677 5679 5681 5682 5683 5685 5684 5684 5682 5682 5681 5680 5679 5677 5674 5671 5669 5665 5662 5659 5656
5645 5647 5649 5653 5658 5661 5664 5667 5670 5671 5670 5671 5671 5669 5670 5670 5668 5668 5666 5664 5662 5659 5657 5654 5650 5647 5644
5632 5634 5636 5640 5645 5649 5651 5655 5656 5658 5657 5658 5659 5657 5657 5657 5656 5654 5653 5650 5648 5645 5642 5640 5636 5634 5631
5617 5623 5626 5630 5633 5635 5637 5639 5642 5644 5644 5645 5646 5644 5643 5643 5642 5640 5638 5636 5634 5632 5629 5626 5623 5620 5617
5603 5608 5612 5614 5617 5621 5623 5626 5628 5629 5629 5630 5630 5630 5629 5628 5628 5626 5623 5622 5620 5617 5614 5612 5609 5606 5604
5586 5590 5594 5598 5603 5607 5609 5611 5613 5614 5615 5615 5615 5614 5614 5614 5613 5611 5608 5607 5605 5603 5600 5597 5595 5592 5590
5569 5575 5579 5583 5587 5591 5594 5595 5598 5599 5600 5599 5599 5598 5598 5597 5597 5595 5593 5591 5590 5587 5585 5583 5580 5579 5577
5553 5558 5564 5569 5572 5575 5578 5580 5582 5583 5583 5583 5583 5583 5582 5582 5581 5579 5578 5576 5574 5572 5570 5569 5567 5564 5563
5538 5543 5548 5552 5557 5560 5563 5564 5565 5566 5566 5567 5566 5567 5567 5567 5565 5563 5562 5560 5559 5558 5556 5555 5553 5551 5549